SWA988 KSRQ-KBWI

Flight info

Callsign SWA988
Flight time N/A
Altitude 39000
Route TIDES1 CAMJO Q99 OGRAE GOOOB THHMP RAVNN8
Aircraft B737/M-SADE2E3GIJ4RWZ/LB1D1

Departure

Time 2026-04-21 16:35
Airport Sarasota Bradenton International Airport (KSRQ)

Arrival

Time N/A
Airport Baltimore/Washington International Thurgood Marshall Airport (KBWI)
Time Latitude Longitude Altitude Speed Heading
2026-04-21 16:15 27.38997 -82.55438 30 ft 0 kts 123°
2026-04-21 16:23 27.39005 -82.55451 30 ft 4 kts 119°
2026-04-21 16:23 27.39018 -82.55477 30 ft 4 kts 118°
2026-04-21 16:24 27.39028 -82.55505 30 ft 4 kts 94°
2026-04-21 16:24 27.39024 -82.55533 30 ft 3 kts 65°
2026-04-21 16:24 27.39023 -82.55536 30 ft 1 kts 64°
2026-04-21 16:27 27.39023 -82.55535 30 ft 0 kts 64°
2026-04-21 16:28 27.39044 -82.55521 30 ft 10 kts 15°
2026-04-21 16:28 27.39124 -82.55490 30 ft 13 kts 30°
2026-04-21 16:28 27.39196 -82.55435 30 ft 12 kts 38°
2026-04-21 16:28 27.39269 -82.55395 29 ft 12 kts 354°
2026-04-21 16:29 27.39333 -82.55451 29 ft 12 kts 314°
2026-04-21 16:29 27.39390 -82.55514 29 ft 11 kts 315°
2026-04-21 16:29 27.39445 -82.55575 30 ft 11 kts 315°
2026-04-21 16:29 27.39498 -82.55636 30 ft 11 kts 314°
2026-04-21 16:30 27.39554 -82.55701 29 ft 13 kts 314°
2026-04-21 16:30 27.39619 -82.55775 30 ft 13 kts 314°
2026-04-21 16:30 27.39682 -82.55848 30 ft 13 kts 314°
2026-04-21 16:30 27.39743 -82.55918 30 ft 12 kts 315°
2026-04-21 16:31 27.39804 -82.55986 29 ft 12 kts 314°
2026-04-21 16:31 27.39862 -82.56053 29 ft 12 kts 315°
2026-04-21 16:31 27.39919 -82.56119 29 ft 12 kts 314°
2026-04-21 16:31 27.39974 -82.56183 29 ft 11 kts 314°
2026-04-21 16:32 27.40026 -82.56244 29 ft 11 kts 314°
2026-04-21 16:32 27.40079 -82.56304 29 ft 11 kts 315°
2026-04-21 16:32 27.40145 -82.56377 30 ft 15 kts 314°
2026-04-21 16:32 27.40217 -82.56461 29 ft 15 kts 314°
2026-04-21 16:33 27.40282 -82.56537 28 ft 13 kts 315°
2026-04-21 16:33 27.40344 -82.56606 30 ft 12 kts 315°
2026-04-21 16:33 27.40396 -82.56617 30 ft 8 kts 36°
2026-04-21 16:33 27.40434 -82.56576 29 ft 7 kts 46°
2026-04-21 16:34 27.40440 -82.56535 30 ft 6 kts 129°
2026-04-21 16:34 27.40433 -82.56527 28 ft 0 kts 136°
2026-04-21 16:34 27.40400 -82.56491 28 ft 32 kts 135°
2026-04-21 16:34 27.40054 -82.56095 27 ft 107 kts 134°
2026-04-21 16:35 27.39404 -82.55336 149 ft 152 kts 130°
2026-04-21 16:35 27.38677 -82.54474 904 ft 149 kts 129°
2026-04-21 16:35 27.37950 -82.53652 1638 ft 156 kts 130°
2026-04-21 16:35 27.37102 -82.52689 1939 ft 192 kts 128°
2026-04-21 16:36 27.36106 -82.51524 2303 ft 218 kts 129°
2026-04-21 16:36 27.35033 -82.50293 3151 ft 220 kts 129°
2026-04-21 16:36 27.33960 -82.49073 4057 ft 219 kts 129°
2026-04-21 16:36 27.32904 -82.47880 4731 ft 221 kts 129°
2026-04-21 16:37 27.31815 -82.46649 5531 ft 226 kts 131°
2026-04-21 16:37 27.30433 -82.45707 6206 ft 244 kts 163°
2026-04-21 16:37 27.28700 -82.45743 6864 ft 262 kts 199°
2026-04-21 16:37 27.27203 -82.46892 7718 ft 264 kts 224°
2026-04-21 16:38 27.25931 -82.48365 8693 ft 260 kts 240°
2026-04-21 16:38 27.25285 -82.50222 9643 ft 260 kts 261°
2026-04-21 16:38 27.24945 -82.52323 10091 ft 284 kts 263°
2026-04-21 16:38 27.24633 -82.54522 10991 ft 287 kts 263°
2026-04-21 16:39 27.24466 -82.56762 11840 ft 288 kts 281°
2026-04-21 16:39 27.25071 -82.58867 12790 ft 283 kts 302°
2026-04-21 16:39 27.26280 -82.60629 13626 ft 287 kts 313°
2026-04-21 16:39 27.27636 -82.62271 14486 ft 291 kts 314°
2026-04-21 16:40 27.29043 -82.63936 15313 ft 298 kts 314°
2026-04-21 16:40 27.30474 -82.65634 16201 ft 299 kts 313°
2026-04-21 16:40 27.31902 -82.67343 17137 ft 303 kts 312°
2026-04-21 16:40 27.33338 -82.69077 18057 ft 305 kts 312°
2026-04-21 16:41 27.34788 -82.70837 18853 ft 311 kts 311°
2026-04-21 16:41 27.36271 -82.72640 19569 ft 315 kts 311°
2026-04-21 16:41 27.37763 -82.74447 20412 ft 316 kts 313°
2026-04-21 16:41 27.39531 -82.75937 21198 ft 323 kts 330°
2026-04-21 16:42 27.41601 -82.76966 22015 ft 327 kts 334°
2026-04-21 16:42 27.43721 -82.77937 22780 ft 331 kts 333°
2026-04-21 16:42 27.45872 -82.78910 23505 ft 337 kts 336°
2026-04-21 16:42 27.48193 -82.79406 23983 ft 357 kts 353°
2026-04-21 16:43 27.50765 -82.79357 24100 ft 381 kts 358°
2026-04-21 16:43 27.53474 -82.79196 24218 ft 399 kts 358°
2026-04-21 16:43 27.56305 -82.79052 24323 ft 415 kts 358°
2026-04-21 16:43 27.59246 -82.78940 24424 ft 429 kts 356°
2026-04-21 16:44 27.62260 -82.78896 24642 ft 437 kts 356°
2026-04-21 16:44 27.65308 -82.78886 25080 ft 439 kts 355°
2026-04-21 16:44 27.68357 -82.78883 25593 ft 438 kts 355°
2026-04-21 16:44 27.71411 -82.78876 26109 ft 439 kts 355°
2026-04-21 16:45 27.74473 -82.78864 26561 ft 441 kts 355°
2026-04-21 16:45 27.77548 -82.78848 26982 ft 443 kts 355°
2026-04-21 16:45 27.80641 -82.78828 27416 ft 445 kts 355°
2026-04-21 16:45 27.83746 -82.78808 27825 ft 447 kts 355°
2026-04-21 16:46 27.86861 -82.78787 28237 ft 449 kts 355°
2026-04-21 16:46 27.89947 -82.78767 28667 ft 450 kts 355°
2026-04-21 16:46 27.93080 -82.78747 29082 ft 451 kts 355°
2026-04-21 16:46 27.96223 -82.78728 29467 ft 453 kts 355°
2026-04-21 16:47 27.99371 -82.78708 29935 ft 452 kts 355°
2026-04-21 16:47 28.02504 -82.78687 30522 ft 448 kts 355°
2026-04-21 16:47 28.05613 -82.78666 31072 ft 445 kts 355°
2026-04-21 16:47 28.08702 -82.78645 31554 ft 443 kts 355°
2026-04-21 16:48 28.11786 -82.78626 31982 ft 443 kts 355°
2026-04-21 16:48 28.14867 -82.78608 32418 ft 442 kts 355°
2026-04-21 16:48 28.17933 -82.78588 32913 ft 440 kts 355°
2026-04-21 16:48 28.20933 -82.78568 33589 ft 432 kts 355°
2026-04-21 16:49 28.23915 -82.78547 34262 ft 426 kts 355°
2026-04-21 16:49 28.26875 -82.78529 34588 ft 426 kts 355°
2026-04-21 16:49 28.29855 -82.78513 34727 ft 431 kts 355°
2026-04-21 16:49 28.32863 -82.78497 34910 ft 433 kts 355°
2026-04-21 16:50 28.35880 -82.78478 35193 ft 434 kts 354°
2026-04-21 16:50 28.38899 -82.78458 35468 ft 434 kts 354°
2026-04-21 16:50 28.41925 -82.78415 35697 ft 437 kts 356°
2026-04-21 16:50 28.44974 -82.78224 35920 ft 440 kts 358°
2026-04-21 16:51 28.47992 -82.77947 36209 ft 441 kts 358°
2026-04-21 16:51 28.51038 -82.77635 36628 ft 438 kts 358°
2026-04-21 16:51 28.54072 -82.77323 36843 ft 439 kts 358°
2026-04-21 16:51 28.57133 -82.77022 36959 ft 443 kts 357°
2026-04-21 16:52 28.60211 -82.76729 37159 ft 444 kts 357°
2026-04-21 16:52 28.63290 -82.76444 37410 ft 444 kts 357°
2026-04-21 16:52 28.66375 -82.76163 37619 ft 446 kts 357°
2026-04-21 16:52 28.69471 -82.75884 37806 ft 447 kts 356°
2026-04-21 16:53 28.72537 -82.75609 38007 ft 448 kts 356°
2026-04-21 16:53 28.75650 -82.75329 38221 ft 449 kts 356°
2026-04-21 16:53 28.78770 -82.75048 38471 ft 450 kts 356°
2026-04-21 16:53 28.81891 -82.74766 38702 ft 450 kts 356°
2026-04-21 16:54 28.85022 -82.74483 38883 ft 452 kts 356°
2026-04-21 16:54 28.88162 -82.74200 39055 ft 453 kts 356°
2026-04-21 16:54 28.91277 -82.73914 39339 ft 446 kts 356°
2026-04-21 16:54 28.94335 -82.73630 39280 ft 434 kts 356°
2026-04-21 16:55 28.97287 -82.73353 39307 ft 418 kts 355°
2026-04-21 16:55 29.00103 -82.73089 39296 ft 404 kts 355°
2026-04-21 16:55 29.02856 -82.72835 39296 ft 390 kts 355°
2026-04-21 16:56 29.08153 -82.72360 39328 ft 380 kts 354°
2026-04-21 16:56 29.13516 -82.71899 39336 ft 393 kts 355°
2026-04-21 16:57 29.19019 -82.71407 39334 ft 399 kts 355°
2026-04-21 16:57 29.24564 -82.70898 39328 ft 401 kts 355°